Overview Statistics Trail Chart Weather Telemetry Raw packets
 

This is the latest recevied weather packets stored in our database for station/object 4S6DRJ-13. If no packets are shown the sender has not sent any weather packets the latest 10 day(s).

<< 386 387 388 389 390 391 392 >>
Time Temp. Humidity Pressure Rain* Wind** Luminosity Snow
1787880188 27.78° C 86% 1010 hPa 0 mm 0.89 m/s, 187° 69 W/m² -
1787880128 27.78° C 86% 1009.9 hPa 0 mm 0.45 m/s, 251° 69 W/m² -
1787880067 27.78° C 86% 1010 hPa 0 mm 0 m/s 64 W/m² -
1787880006 27.78° C 86% 1010.1 hPa 0 mm 2.68 m/s, 225° 60 W/m² -
1787879944 27.78° C 86% 1010 hPa 0 mm 2.24 m/s, 185° 61 W/m² -
1787879884 27.78° C 86% 1009.9 hPa 0 mm 0.89 m/s, 256° 60 W/m² -
1787879822 27.78° C 87% 1009.9 hPa 0 mm 0.89 m/s, 240° 57 W/m² -
1787879762 27.78° C 87% 1009.8 hPa 0 mm 0.45 m/s, 94° 55 W/m² -
1787879701 27.78° C 87% 1009.9 hPa 0 mm 0.45 m/s, 232° 51 W/m² -
1787879639 27.78° C 87% 1009.8 hPa 0 mm 0.89 m/s, 252° 48 W/m² -
1787879579 27.78° C 87% 1009.8 hPa 0 mm 1.34 m/s, 245° 48 W/m² -
1787879518 27.78° C 87% 1009.9 hPa 0 mm 1.34 m/s, 216° 45 W/m² -
1787879456 27.78° C 87% 1009.7 hPa 0 mm 1.34 m/s, 272° 46 W/m² -
1787879395 27.78° C 87% 1009.9 hPa 0 mm 1.79 m/s, 232° 44 W/m² -
1787879335 27.78° C 87% 1009.8 hPa 0 mm 0.89 m/s, 196° 40 W/m² -
1787879274 27.78° C 87% 1009.6 hPa 0 mm 1.79 m/s, 277° 37 W/m² -
1787879212 27.78° C 87% 1009.8 hPa 0 mm 1.34 m/s, 223° 33 W/m² -
1787879151 27.78° C 87% 1009.8 hPa 0 mm 0.89 m/s, 222° 32 W/m² -
1787879091 27.78° C 87% 1009.7 hPa 0 mm 2.68 m/s, 243° 32 W/m² -
1787879030 27.78° C 87% 1009.6 hPa 0 mm 1.34 m/s, 192° 31 W/m² -
1787878969 27.78° C 87% 1009.9 hPa 0 mm 1.34 m/s, 186° 28 W/m² -
1787878908 27.78° C 87% 1009.8 hPa 0 mm 0.45 m/s, 242° 25 W/m² -
1787878846 27.78° C 87% 1009.8 hPa 0 mm 0.45 m/s, 204° 23 W/m² -
1787878785 27.78° C 87% 1009.9 hPa 0 mm 1.34 m/s, 261° 23 W/m² -
1787878725 27.78° C 87% 1009.7 hPa 0 mm 1.34 m/s, 227° 26 W/m² -

* Rain latest hour (hover to see other rain measurements)
** Current wind speed in m/s (hover to see current wind gust speed)